AAL496 KDFW-KCLT

Flight info

Callsign AAL496
Flight time N/A
Altitude 41000
Route FORCK3 FORCK ELD IZAAC Q30 VLKNN THRSR BESTT JONZE5
Aircraft A333/H-SDE3GHIJ2J3J5M1RVWXY/LB2D1

Departure

Time 2026-05-07 00:49
Airport Dallas Fort Worth International Airport (KDFW)

Arrival

Time N/A
Airport Charlotte Douglas International Airport (KCLT)
Time Latitude Longitude Altitude Speed Heading
2026-05-07 00:24 32.90751 -97.03796 596 ft 0 kts 176°
2026-05-07 00:41 32.90763 -97.03796 596 ft 2 kts 176°
2026-05-07 00:41 32.90773 -97.03797 596 ft 2 kts 176°
2026-05-07 00:41 32.90787 -97.03801 596 ft 2 kts 147°
2026-05-07 00:41 32.90799 -97.03813 596 ft 2 kts 123°
2026-05-07 00:42 32.90806 -97.03829 596 ft 2 kts 99°
2026-05-07 00:42 32.90807 -97.03838 596 ft 1 kts 89°
2026-05-07 00:42 32.90807 -97.03841 596 ft 0 kts 90°
2026-05-07 00:43 32.90806 -97.03829 596 ft 8 kts 92°
2026-05-07 00:44 32.90809 -97.03678 595 ft 26 kts 88°
2026-05-07 00:44 32.90889 -97.03501 591 ft 20 kts 333°
2026-05-07 00:44 32.90907 -97.03647 593 ft 17 kts 266°
2026-05-07 00:44 32.90906 -97.03787 594 ft 17 kts 274°
2026-05-07 00:45 32.90912 -97.03975 596 ft 25 kts 271°
2026-05-07 00:45 32.90913 -97.04208 597 ft 30 kts 269°
2026-05-07 00:45 32.90910 -97.04478 600 ft 33 kts 266°
2026-05-07 00:45 32.90855 -97.04744 604 ft 33 kts 206°
2026-05-07 00:46 32.90609 -97.04765 609 ft 36 kts 185°
2026-05-07 00:46 32.90377 -97.04876 614 ft 35 kts 195°
2026-05-07 00:46 32.90111 -97.04889 614 ft 39 kts 178°
2026-05-07 00:46 32.89812 -97.04868 611 ft 44 kts 179°
2026-05-07 00:47 32.89481 -97.04889 604 ft 50 kts 180°
2026-05-07 00:47 32.89108 -97.04890 595 ft 55 kts 180°
2026-05-07 00:47 32.88699 -97.04883 586 ft 60 kts 178°
2026-05-07 00:47 32.88281 -97.04855 579 ft 45 kts 173°
2026-05-07 00:48 32.87972 -97.04904 575 ft 38 kts 233°
2026-05-07 00:48 32.87938 -97.05078 574 ft 17 kts 312°
2026-05-07 00:48 32.87980 -97.05094 575 ft 0 kts 355°
2026-05-07 00:48 32.88124 -97.05096 577 ft 54 kts
2026-05-07 00:49 32.88753 -97.05092 589 ft 123 kts
2026-05-07 00:49 32.89766 -97.05079 953 ft 147 kts
2026-05-07 00:49 32.90751 -97.05090 1640 ft 150 kts 359°
2026-05-07 00:49 32.91856 -97.05105 2242 ft 164 kts 360°
2026-05-07 00:50 32.92999 -97.05127 2828 ft 164 kts 358°
2026-05-07 00:50 32.94136 -97.04864 3158 ft 176 kts 26°
2026-05-07 00:50 32.95261 -97.04125 3484 ft 190 kts 25°
2026-05-07 00:50 32.96496 -97.03338 3741 ft 208 kts 26°
2026-05-07 00:51 32.97844 -97.02468 4014 ft 228 kts 26°
2026-05-07 00:51 32.99305 -97.01524 4359 ft 248 kts 26°
2026-05-07 00:51 33.00298 -97.00861 4623 ft 260 kts 31°
2026-05-07 00:51 33.01544 -96.99279 5360 ft 273 kts 58°
2026-05-07 00:52 33.02105 -96.97082 6085 ft 284 kts 85°
2026-05-07 00:52 33.01825 -96.94751 6850 ft 290 kts 104°
2026-05-07 00:52 33.01445 -96.92346 7565 ft 299 kts 97°
2026-05-07 00:52 33.01214 -96.89856 8246 ft 307 kts 96°
2026-05-07 00:53 33.01008 -96.87303 8950 ft 314 kts 97°
2026-05-07 00:53 33.00406 -96.84822 9653 ft 316 kts 118°
2026-05-07 00:53 32.99444 -96.82483 10366 ft 322 kts 118°
2026-05-07 00:53 32.98453 -96.80012 10775 ft 340 kts 118°
2026-05-07 00:54 32.97397 -96.77374 11123 ft 360 kts 118°
2026-05-07 00:54 32.96296 -96.74616 11437 ft 379 kts 118°
2026-05-07 00:54 32.95128 -96.71697 11739 ft 396 kts 118°
2026-05-07 00:54 32.93928 -96.68697 12280 ft 404 kts 118°
2026-05-07 00:55 32.92708 -96.65648 12868 ft 409 kts 119°
2026-05-07 00:55 32.91482 -96.62592 13383 ft 415 kts 119°
2026-05-07 00:55 32.90221 -96.59446 13959 ft 418 kts 119°
2026-05-07 00:55 32.88971 -96.56338 14527 ft 422 kts 119°
2026-05-07 00:56 32.87694 -96.53160 15054 ft 426 kts 120°
2026-05-07 00:56 32.86413 -96.49971 15616 ft 429 kts 120°
2026-05-07 00:56 32.85117 -96.46760 16128 ft 433 kts 120°
2026-05-07 00:56 32.83824 -96.43548 16626 ft 437 kts 121°
2026-05-07 00:57 32.82491 -96.40245 17213 ft 439 kts 121°
2026-05-07 00:57 32.81161 -96.36951 17696 ft 443 kts 121°
2026-05-07 00:57 32.80136 -96.33478 18144 ft 458 kts 106°
2026-05-07 00:57 32.79957 -96.29682 18529 ft 472 kts 88°
2026-05-07 00:58 32.80435 -96.25800 18931 ft 477 kts 84°
2026-05-07 00:58 32.80885 -96.21890 19332 ft 481 kts 85°
2026-05-07 00:58 32.81312 -96.17918 19774 ft 484 kts 85°
2026-05-07 00:58 32.81723 -96.13979 20118 ft 489 kts 85°
2026-05-07 00:59 32.82563 -96.05873 20914 ft 496 kts 85°
2026-05-07 00:59 32.82981 -96.01804 21270 ft 500 kts 85°
2026-05-07 00:59 32.83399 -95.97715 21621 ft 503 kts 84°
2026-05-07 01:00 32.83823 -95.93569 21992 ft 506 kts 84°
2026-05-07 01:00 32.84243 -95.89447 22393 ft 508 kts 85°
2026-05-07 01:00 32.84664 -95.85274 22696 ft 513 kts 84°
2026-05-07 01:00 32.85095 -95.81027 23042 ft 516 kts 84°
2026-05-07 01:01 32.85518 -95.76811 23435 ft 517 kts 85°
2026-05-07 01:01 32.85952 -95.72508 23723 ft 522 kts 84°
2026-05-07 01:01 32.86379 -95.68225 24081 ft 524 kts 84°
2026-05-07 01:01 32.86807 -95.63933 24386 ft 527 kts 85°
2026-05-07 01:02 32.87241 -95.59573 24648 ft 532 kts 84°
2026-05-07 01:02 32.87676 -95.55155 24990 ft 534 kts 85°
2026-05-07 01:02 32.88110 -95.50755 25312 ft 537 kts 85°
2026-05-07 01:02 32.88547 -95.46316 25641 ft 540 kts 85°
2026-05-07 01:03 32.88982 -95.41843 25912 ft 544 kts 85°
2026-05-07 01:03 32.89419 -95.37386 26245 ft 546 kts 85°
2026-05-07 01:03 32.89861 -95.32826 26545 ft 549 kts 85°
2026-05-07 01:03 32.90299 -95.28303 26782 ft 552 kts 85°
2026-05-07 01:04 32.90736 -95.23762 27088 ft 554 kts 86°
2026-05-07 01:04 32.91178 -95.19174 27358 ft 556 kts 86°
2026-05-07 01:04 32.91614 -95.14589 27619 ft 559 kts 86°
2026-05-07 01:04 32.92051 -95.09992 27914 ft 561 kts 86°
2026-05-07 01:05 32.92489 -95.05385 28169 ft 563 kts 86°
2026-05-07 01:05 32.92929 -95.00711 28425 ft 566 kts 86°
2026-05-07 01:05 32.93372 -94.96035 28705 ft 567 kts 86°
2026-05-07 01:05 32.93809 -94.91369 28924 ft 570 kts 86°
2026-05-07 01:06 32.94236 -94.86750 29142 ft 573 kts 87°
2026-05-07 01:06 32.94680 -94.81984 29413 ft 574 kts 86°
2026-05-07 01:06 32.95118 -94.77272 29746 ft 574 kts 86°
2026-05-07 01:06 32.95560 -94.72466 30055 ft 575 kts 86°
2026-05-07 01:07 32.95996 -94.67719 30345 ft 576 kts 86°
2026-05-07 01:07 32.96429 -94.62973 30599 ft 578 kts 86°
2026-05-07 01:07 32.96862 -94.58237 30936 ft 578 kts 86°
2026-05-07 01:07 32.97297 -94.53399 31296 ft 577 kts 86°